Index of /20260504/WXO-DD/model_gdps/15km/12/027
Name Last modified Size Description
Parent Directory -
20260504T12Z_MSC_GDPS_AbsoluteVorticity_IsbL-0200_LatLon0.15_PT027H.grib2 2026-05-04 16:12 1.5M
20260504T12Z_MSC_GDPS_AbsoluteVorticity_IsbL-0250_LatLon0.15_PT027H.grib2 2026-05-04 16:12 1.3M
20260504T12Z_MSC_GDPS_AbsoluteVorticity_IsbL-0500_LatLon0.15_PT027H.grib2 2026-05-04 16:12 1.2M
20260504T12Z_MSC_GDPS_AbsoluteVorticity_IsbL-0700_LatLon0.15_PT027H.grib2 2026-05-04 16:12 1.3M
20260504T12Z_MSC_GDPS_AbsoluteVorticity_IsbL-0850_LatLon0.15_PT027H.grib2 2026-05-04 16:12 1.6M
20260504T12Z_MSC_GDPS_AirTemp_AGL-120m_LatLon0.15_PT027H.grib2 2026-05-04 16:12 903K
20260504T12Z_MSC_GDPS_AirTemp_AGL-2m_LatLon0.15_PT027H.grib2 2026-05-04 16:12 1.0M
20260504T12Z_MSC_GDPS_AirTemp_AGL-40m_LatLon0.15_PT027H.grib2 2026-05-04 16:12 805K
20260504T12Z_MSC_GDPS_AirTemp_AGL-80m_LatLon0.15_PT027H.grib2 2026-05-04 16:12 794K
20260504T12Z_MSC_GDPS_AirTemp_IsbL-0001_LatLon0.15_PT027H.grib2 2026-05-04 16:12 658K
20260504T12Z_MSC_GDPS_AirTemp_IsbL-0005_LatLon0.15_PT027H.grib2 2026-05-04 16:12 693K
20260504T12Z_MSC_GDPS_AirTemp_IsbL-0010_LatLon0.15_PT027H.grib2 2026-05-04 16:12 702K
20260504T12Z_MSC_GDPS_AirTemp_IsbL-0020_LatLon0.15_PT027H.grib2 2026-05-04 16:12 791K
20260504T12Z_MSC_GDPS_AirTemp_IsbL-0030_LatLon0.15_PT027H.grib2 2026-05-04 16:12 844K
20260504T12Z_MSC_GDPS_AirTemp_IsbL-0050_LatLon0.15_PT027H.grib2 2026-05-04 16:12 816K
20260504T12Z_MSC_GDPS_AirTemp_IsbL-0100_LatLon0.15_PT027H.grib2 2026-05-04 16:12 1.0M
20260504T12Z_MSC_GDPS_AirTemp_IsbL-0150_LatLon0.15_PT027H.grib2 2026-05-04 16:12 1.0M
20260504T12Z_MSC_GDPS_AirTemp_IsbL-0175_LatLon0.15_PT027H.grib2 2026-05-04 16:12 966K
20260504T12Z_MSC_GDPS_AirTemp_IsbL-0200_LatLon0.15_PT027H.grib2 2026-05-04 16:12 1.0M
20260504T12Z_MSC_GDPS_AirTemp_IsbL-0225_LatLon0.15_PT027H.grib2 2026-05-04 16:12 1.0M
20260504T12Z_MSC_GDPS_AirTemp_IsbL-0250_LatLon0.15_PT027H.grib2 2026-05-04 16:12 1.0M
20260504T12Z_MSC_GDPS_AirTemp_IsbL-0275_LatLon0.15_PT027H.grib2 2026-05-04 16:12 1.0M
20260504T12Z_MSC_GDPS_AirTemp_IsbL-0300_LatLon0.15_PT027H.grib2 2026-05-04 16:12 952K
20260504T12Z_MSC_GDPS_AirTemp_IsbL-0350_LatLon0.15_PT027H.grib2 2026-05-04 16:12 936K
20260504T12Z_MSC_GDPS_AirTemp_IsbL-0400_LatLon0.15_PT027H.grib2 2026-05-04 16:12 948K
20260504T12Z_MSC_GDPS_AirTemp_IsbL-0450_LatLon0.15_PT027H.grib2 2026-05-04 16:12 972K
20260504T12Z_MSC_GDPS_AirTemp_IsbL-0500_LatLon0.15_PT027H.grib2 2026-05-04 16:12 1.0M
20260504T12Z_MSC_GDPS_AirTemp_IsbL-0550_LatLon0.15_PT027H.grib2 2026-05-04 16:12 1.0M
20260504T12Z_MSC_GDPS_AirTemp_IsbL-0600_LatLon0.15_PT027H.grib2 2026-05-04 16:12 896K
20260504T12Z_MSC_GDPS_AirTemp_IsbL-0650_LatLon0.15_PT027H.grib2 2026-05-04 16:12 925K
20260504T12Z_MSC_GDPS_AirTemp_IsbL-0700_LatLon0.15_PT027H.grib2 2026-05-04 16:12 960K
20260504T12Z_MSC_GDPS_AirTemp_IsbL-0750_LatLon0.15_PT027H.grib2 2026-05-04 16:12 1.0M
20260504T12Z_MSC_GDPS_AirTemp_IsbL-0800_LatLon0.15_PT027H.grib2 2026-05-04 16:12 1.1M
20260504T12Z_MSC_GDPS_AirTemp_IsbL-0850_LatLon0.15_PT027H.grib2 2026-05-04 16:12 1.1M
20260504T12Z_MSC_GDPS_AirTemp_IsbL-0875_LatLon0.15_PT027H.grib2 2026-05-04 16:12 1.2M
20260504T12Z_MSC_GDPS_AirTemp_IsbL-0900_LatLon0.15_PT027H.grib2 2026-05-04 16:12 1.1M
20260504T12Z_MSC_GDPS_AirTemp_IsbL-0925_LatLon0.15_PT027H.grib2 2026-05-04 16:12 1.1M
20260504T12Z_MSC_GDPS_AirTemp_IsbL-0950_LatLon0.15_PT027H.grib2 2026-05-04 16:12 1.1M
20260504T12Z_MSC_GDPS_AirTemp_IsbL-0970_LatLon0.15_PT027H.grib2 2026-05-04 16:12 1.1M
20260504T12Z_MSC_GDPS_AirTemp_IsbL-0985_LatLon0.15_PT027H.grib2 2026-05-04 16:12 1.1M
20260504T12Z_MSC_GDPS_AirTemp_IsbL-1000_LatLon0.15_PT027H.grib2 2026-05-04 16:12 1.1M
20260504T12Z_MSC_GDPS_AirTemp_IsbL-1015_LatLon0.15_PT027H.grib2 2026-05-04 16:12 1.1M
20260504T12Z_MSC_GDPS_Albedo_Sfc_LatLon0.15_PT027H.grib2 2026-05-04 16:12 242K
20260504T12Z_MSC_GDPS_CAPE_Sfc_LatLon0.15_PT027H.grib2 2026-05-04 16:12 4.0M
20260504T12Z_MSC_GDPS_CIN_Sfc_LatLon0.15_PT027H.grib2 2026-05-04 16:12 2.9M
20260504T12Z_MSC_GDPS_CloudWater_EAtm_LatLon0.15_PT027H.grib2 2026-05-04 16:12 536K
20260504T12Z_MSC_GDPS_ConvectivePrecip-Accum_Sfc_LatLon0.15_PT027H.grib2 2026-05-04 16:12 2.4M
20260504T12Z_MSC_GDPS_DewPointDepression_AGL-2m_LatLon0.15_PT027H.grib2 2026-05-04 16:12 602K
20260504T12Z_MSC_GDPS_DewPointDepression_IsbL-0010_LatLon0.15_PT027H.grib2 2026-05-04 16:12 78K
20260504T12Z_MSC_GDPS_DewPointDepression_IsbL-0020_LatLon0.15_PT027H.grib2 2026-05-04 16:12 74K
20260504T12Z_MSC_GDPS_DewPointDepression_IsbL-0030_LatLon0.15_PT027H.grib2 2026-05-04 16:12 88K
20260504T12Z_MSC_GDPS_DewPointDepression_IsbL-0050_LatLon0.15_PT027H.grib2 2026-05-04 16:12 384K
20260504T12Z_MSC_GDPS_DewPointDepression_IsbL-0100_LatLon0.15_PT027H.grib2 2026-05-04 16:12 407K
20260504T12Z_MSC_GDPS_DewPointDepression_IsbL-0150_LatLon0.15_PT027H.grib2 2026-05-04 16:12 481K
20260504T12Z_MSC_GDPS_DewPointDepression_IsbL-0175_LatLon0.15_PT027H.grib2 2026-05-04 16:12 594K
20260504T12Z_MSC_GDPS_DewPointDepression_IsbL-0200_LatLon0.15_PT027H.grib2 2026-05-04 16:12 692K
20260504T12Z_MSC_GDPS_DewPointDepression_IsbL-0225_LatLon0.15_PT027H.grib2 2026-05-04 16:12 786K
20260504T12Z_MSC_GDPS_DewPointDepression_IsbL-0250_LatLon0.15_PT027H.grib2 2026-05-04 16:12 880K
20260504T12Z_MSC_GDPS_DewPointDepression_IsbL-0275_LatLon0.15_PT027H.grib2 2026-05-04 16:12 899K
20260504T12Z_MSC_GDPS_DewPointDepression_IsbL-0300_LatLon0.15_PT027H.grib2 2026-05-04 16:12 942K
20260504T12Z_MSC_GDPS_DewPointDepression_IsbL-0350_LatLon0.15_PT027H.grib2 2026-05-04 16:12 965K
20260504T12Z_MSC_GDPS_DewPointDepression_IsbL-0400_LatLon0.15_PT027H.grib2 2026-05-04 16:12 1.0M
20260504T12Z_MSC_GDPS_DewPointDepression_IsbL-0450_LatLon0.15_PT027H.grib2 2026-05-04 16:12 1.0M
20260504T12Z_MSC_GDPS_DewPointDepression_IsbL-0500_LatLon0.15_PT027H.grib2 2026-05-04 16:12 1.0M
20260504T12Z_MSC_GDPS_DewPointDepression_IsbL-0550_LatLon0.15_PT027H.grib2 2026-05-04 16:12 1.0M
20260504T12Z_MSC_GDPS_DewPointDepression_IsbL-0600_LatLon0.15_PT027H.grib2 2026-05-04 16:12 1.0M
20260504T12Z_MSC_GDPS_DewPointDepression_IsbL-0650_LatLon0.15_PT027H.grib2 2026-05-04 16:12 1.0M
20260504T12Z_MSC_GDPS_DewPointDepression_IsbL-0700_LatLon0.15_PT027H.grib2 2026-05-04 16:12 1.1M
20260504T12Z_MSC_GDPS_DewPointDepression_IsbL-0750_LatLon0.15_PT027H.grib2 2026-05-04 16:12 1.1M
20260504T12Z_MSC_GDPS_DewPointDepression_IsbL-0800_LatLon0.15_PT027H.grib2 2026-05-04 16:12 1.1M
20260504T12Z_MSC_GDPS_DewPointDepression_IsbL-0850_LatLon0.15_PT027H.grib2 2026-05-04 16:12 1.1M
20260504T12Z_MSC_GDPS_DewPointDepression_IsbL-0875_LatLon0.15_PT027H.grib2 2026-05-04 16:12 1.1M
20260504T12Z_MSC_GDPS_DewPointDepression_IsbL-0900_LatLon0.15_PT027H.grib2 2026-05-04 16:12 1.0M
20260504T12Z_MSC_GDPS_DewPointDepression_IsbL-0925_LatLon0.15_PT027H.grib2 2026-05-04 16:12 1.0M
20260504T12Z_MSC_GDPS_DewPointDepression_IsbL-0950_LatLon0.15_PT027H.grib2 2026-05-04 16:12 1.0M
20260504T12Z_MSC_GDPS_DewPointDepression_IsbL-0970_LatLon0.15_PT027H.grib2 2026-05-04 16:12 1.0M
20260504T12Z_MSC_GDPS_DewPointDepression_IsbL-0985_LatLon0.15_PT027H.grib2 2026-05-04 16:12 1.0M
20260504T12Z_MSC_GDPS_DewPointDepression_IsbL-1000_LatLon0.15_PT027H.grib2 2026-05-04 16:12 1.0M
20260504T12Z_MSC_GDPS_DewPointDepression_IsbL-1015_LatLon0.15_PT027H.grib2 2026-05-04 16:12 922K
20260504T12Z_MSC_GDPS_DewPoint_AGL-2m_LatLon0.15_PT027H.grib2 2026-05-04 16:12 608K
20260504T12Z_MSC_GDPS_DownwardLongwaveRadiationFlux-Accum_Sfc_LatLon0.15_PT027H.grib2 2026-05-04 16:12 1.0M
20260504T12Z_MSC_GDPS_DownwardShortwaveRadiationFlux-Accum_NTAtm_LatLon0.15_PT027H.grib2 2026-05-04 16:12 182K
20260504T12Z_MSC_GDPS_DownwardShortwaveRadiationFlux-Accum_Sfc_LatLon0.15_PT027H.grib2 2026-05-04 16:12 1.2M
20260504T12Z_MSC_GDPS_FreezingRain-Accum1h_Sfc_LatLon0.15_PT027H.grib2 2026-05-04 16:12 50K
20260504T12Z_MSC_GDPS_FreezingRain-Accum3h_Sfc_LatLon0.15_PT027H.grib2 2026-05-04 16:12 58K
20260504T12Z_MSC_GDPS_FreezingRain-Accum_Sfc_LatLon0.15_PT027H.grib2 2026-05-04 16:12 168K
20260504T12Z_MSC_GDPS_GeopotentialHeight_IsbL-0001_LatLon0.15_PT027H.grib2 2026-05-04 16:12 431K
20260504T12Z_MSC_GDPS_GeopotentialHeight_IsbL-0005_LatLon0.15_PT027H.grib2 2026-05-04 16:12 484K
20260504T12Z_MSC_GDPS_GeopotentialHeight_IsbL-0010_LatLon0.15_PT027H.grib2 2026-05-04 16:12 476K
20260504T12Z_MSC_GDPS_GeopotentialHeight_IsbL-0020_LatLon0.15_PT027H.grib2 2026-05-04 16:12 415K
20260504T12Z_MSC_GDPS_GeopotentialHeight_IsbL-0030_LatLon0.15_PT027H.grib2 2026-05-04 16:12 573K
20260504T12Z_MSC_GDPS_GeopotentialHeight_IsbL-0050_LatLon0.15_PT027H.grib2 2026-05-04 16:12 572K
20260504T12Z_MSC_GDPS_GeopotentialHeight_IsbL-0100_LatLon0.15_PT027H.grib2 2026-05-04 16:12 610K
20260504T12Z_MSC_GDPS_GeopotentialHeight_IsbL-0150_LatLon0.15_PT027H.grib2 2026-05-04 16:12 630K
20260504T12Z_MSC_GDPS_GeopotentialHeight_IsbL-0175_LatLon0.15_PT027H.grib2 2026-05-04 16:12 634K
20260504T12Z_MSC_GDPS_GeopotentialHeight_IsbL-0200_LatLon0.15_PT027H.grib2 2026-05-04 16:12 640K
20260504T12Z_MSC_GDPS_GeopotentialHeight_IsbL-0225_LatLon0.15_PT027H.grib2 2026-05-04 16:12 644K
20260504T12Z_MSC_GDPS_GeopotentialHeight_IsbL-0250_LatLon0.15_PT027H.grib2 2026-05-04 16:12 647K
20260504T12Z_MSC_GDPS_GeopotentialHeight_IsbL-0275_LatLon0.15_PT027H.grib2 2026-05-04 16:12 645K
20260504T12Z_MSC_GDPS_GeopotentialHeight_IsbL-0300_LatLon0.15_PT027H.grib2 2026-05-04 16:12 645K
20260504T12Z_MSC_GDPS_GeopotentialHeight_IsbL-0350_LatLon0.15_PT027H.grib2 2026-05-04 16:12 632K
20260504T12Z_MSC_GDPS_GeopotentialHeight_IsbL-0400_LatLon0.15_PT027H.grib2 2026-05-04 16:12 624K
20260504T12Z_MSC_GDPS_GeopotentialHeight_IsbL-0450_LatLon0.15_PT027H.grib2 2026-05-04 16:12 615K
20260504T12Z_MSC_GDPS_GeopotentialHeight_IsbL-0500_LatLon0.15_PT027H.grib2 2026-05-04 16:12 537K
20260504T12Z_MSC_GDPS_GeopotentialHeight_IsbL-0550_LatLon0.15_PT027H.grib2 2026-05-04 16:12 533K
20260504T12Z_MSC_GDPS_GeopotentialHeight_IsbL-0600_LatLon0.15_PT027H.grib2 2026-05-04 16:12 700K
20260504T12Z_MSC_GDPS_GeopotentialHeight_IsbL-0650_LatLon0.15_PT027H.grib2 2026-05-04 16:12 699K
20260504T12Z_MSC_GDPS_GeopotentialHeight_IsbL-0700_LatLon0.15_PT027H.grib2 2026-05-04 16:12 700K
20260504T12Z_MSC_GDPS_GeopotentialHeight_IsbL-0750_LatLon0.15_PT027H.grib2 2026-05-04 16:12 705K
20260504T12Z_MSC_GDPS_GeopotentialHeight_IsbL-0800_LatLon0.15_PT027H.grib2 2026-05-04 16:12 714K
20260504T12Z_MSC_GDPS_GeopotentialHeight_IsbL-0850_LatLon0.15_PT027H.grib2 2026-05-04 16:12 719K
20260504T12Z_MSC_GDPS_GeopotentialHeight_IsbL-0875_LatLon0.15_PT027H.grib2 2026-05-04 16:12 724K
20260504T12Z_MSC_GDPS_GeopotentialHeight_IsbL-0900_LatLon0.15_PT027H.grib2 2026-05-04 16:12 732K
20260504T12Z_MSC_GDPS_GeopotentialHeight_IsbL-0925_LatLon0.15_PT027H.grib2 2026-05-04 16:12 736K
20260504T12Z_MSC_GDPS_GeopotentialHeight_IsbL-0950_LatLon0.15_PT027H.grib2 2026-05-04 16:12 744K
20260504T12Z_MSC_GDPS_GeopotentialHeight_IsbL-0970_LatLon0.15_PT027H.grib2 2026-05-04 16:12 754K
20260504T12Z_MSC_GDPS_GeopotentialHeight_IsbL-0985_LatLon0.15_PT027H.grib2 2026-05-04 16:12 769K
20260504T12Z_MSC_GDPS_GeopotentialHeight_IsbL-1000_LatLon0.15_PT027H.grib2 2026-05-04 16:12 790K
20260504T12Z_MSC_GDPS_GeopotentialHeight_IsbL-1015_LatLon0.15_PT027H.grib2 2026-05-04 16:12 808K
20260504T12Z_MSC_GDPS_Humidex_Sfc_LatLon0.15_PT027H.grib2 2026-05-04 16:12 5.3M
20260504T12Z_MSC_GDPS_IcePellets-Accum1h_Sfc_LatLon0.15_PT027H.grib2 2026-05-04 16:12 17K
20260504T12Z_MSC_GDPS_IcePellets-Accum3h_Sfc_LatLon0.15_PT027H.grib2 2026-05-04 16:12 19K
20260504T12Z_MSC_GDPS_IcePellets-Accum_Sfc_LatLon0.15_PT027H.grib2 2026-05-04 16:12 48K
20260504T12Z_MSC_GDPS_KIndex_Sfc_LatLon0.15_PT027H.grib2 2026-05-04 16:12 6.4M
20260504T12Z_MSC_GDPS_LatentHeatNetFlux_Sfc_LatLon0.15_PT027H.grib2 2026-05-04 16:12 725K
20260504T12Z_MSC_GDPS_LiftedIndex-MU-VT_IsbL-0500_LatLon0.15_PT027H.grib2 2026-05-04 16:12 5.4M
20260504T12Z_MSC_GDPS_NetLongwaveRadiationFlux-Accum_Sfc_LatLon0.15_PT027H.grib2 2026-05-04 16:12 1.2M
20260504T12Z_MSC_GDPS_NetShortwaveRadiationFlux-Accum_Sfc_LatLon0.15_PT027H.grib2 2026-05-04 16:12 1.2M
20260504T12Z_MSC_GDPS_O3MixingRatio_Sfc_LatLon0.15_PT027H.grib2 2026-05-04 17:17 2.0M
20260504T12Z_MSC_GDPS_O3_EAtm_LatLon0.15_PT027H.grib2 2026-05-04 17:17 2.5M
20260504T12Z_MSC_GDPS_PlanetaryBoundaryLayerHeight_Sfc_LatLon0.15_PT027H.grib2 2026-05-04 16:12 2.5M
20260504T12Z_MSC_GDPS_Precip-Accum1h_Sfc_LatLon0.15_PT027H.grib2 2026-05-04 16:12 3.2M
20260504T12Z_MSC_GDPS_Precip-Accum3h_Sfc_LatLon0.15_PT027H.grib2 2026-05-04 16:12 3.5M
20260504T12Z_MSC_GDPS_Precip-Accum_Sfc_LatLon0.15_PT027H.grib2 2026-05-04 16:12 4.4M
20260504T12Z_MSC_GDPS_PrecipRate_Sfc_LatLon0.15_PT027H.grib2 2026-05-04 16:12 3.0M
20260504T12Z_MSC_GDPS_PrecipType-Instant_Sfc_LatLon0.15_PT027H.grib2 2026-05-04 16:12 1.6M
20260504T12Z_MSC_GDPS_Pressure_MSL_LatLon0.15_PT027H.grib2 2026-05-04 16:12 826K
20260504T12Z_MSC_GDPS_Pressure_PVU-1.5_LatLon0.15_PT027H.grib2 2026-05-04 16:12 5.8M
20260504T12Z_MSC_GDPS_Pressure_PVU-1_LatLon0.15_PT027H.grib2 2026-05-04 16:12 6.0M
20260504T12Z_MSC_GDPS_Pressure_PVU-2_LatLon0.15_PT027H.grib2 2026-05-04 16:12 6.0M
20260504T12Z_MSC_GDPS_Pressure_Sfc_LatLon0.15_PT027H.grib2 2026-05-04 16:12 1.1M
20260504T12Z_MSC_GDPS_RadiativeTemp_Sfc_LatLon0.15_PT027H.grib2 2026-05-04 16:12 487K
20260504T12Z_MSC_GDPS_Rain-Accum1h_Sfc_LatLon0.15_PT027H.grib2 2026-05-04 16:12 1.5M
20260504T12Z_MSC_GDPS_Rain-Accum3h_Sfc_LatLon0.15_PT027H.grib2 2026-05-04 16:12 1.9M
20260504T12Z_MSC_GDPS_Rain-Accum_Sfc_LatLon0.15_PT027H.grib2 2026-05-04 16:12 3.3M
20260504T12Z_MSC_GDPS_RelativeHumidity_AGL-2m_LatLon0.15_PT027H.grib2 2026-05-04 16:12 1.1M
20260504T12Z_MSC_GDPS_RelativeHumidity_IsbL-0010_LatLon0.15_PT027H.grib2 2026-05-04 16:12 215K
20260504T12Z_MSC_GDPS_RelativeHumidity_IsbL-0020_LatLon0.15_PT027H.grib2 2026-05-04 16:12 178K
20260504T12Z_MSC_GDPS_RelativeHumidity_IsbL-0030_LatLon0.15_PT027H.grib2 2026-05-04 16:12 275K
20260504T12Z_MSC_GDPS_RelativeHumidity_IsbL-0050_LatLon0.15_PT027H.grib2 2026-05-04 16:12 429K
20260504T12Z_MSC_GDPS_RelativeHumidity_IsbL-0100_LatLon0.15_PT027H.grib2 2026-05-04 16:12 519K
20260504T12Z_MSC_GDPS_RelativeHumidity_IsbL-0150_LatLon0.15_PT027H.grib2 2026-05-04 16:12 665K
20260504T12Z_MSC_GDPS_RelativeHumidity_IsbL-0175_LatLon0.15_PT027H.grib2 2026-05-04 16:12 800K
20260504T12Z_MSC_GDPS_RelativeHumidity_IsbL-0200_LatLon0.15_PT027H.grib2 2026-05-04 16:12 712K
20260504T12Z_MSC_GDPS_RelativeHumidity_IsbL-0225_LatLon0.15_PT027H.grib2 2026-05-04 16:12 793K
20260504T12Z_MSC_GDPS_RelativeHumidity_IsbL-0250_LatLon0.15_PT027H.grib2 2026-05-04 16:12 873K
20260504T12Z_MSC_GDPS_RelativeHumidity_IsbL-0275_LatLon0.15_PT027H.grib2 2026-05-04 16:12 897K
20260504T12Z_MSC_GDPS_RelativeHumidity_IsbL-0300_LatLon0.15_PT027H.grib2 2026-05-04 16:12 940K
20260504T12Z_MSC_GDPS_RelativeHumidity_IsbL-0350_LatLon0.15_PT027H.grib2 2026-05-04 16:12 958K
20260504T12Z_MSC_GDPS_RelativeHumidity_IsbL-0400_LatLon0.15_PT027H.grib2 2026-05-04 16:12 1.0M
20260504T12Z_MSC_GDPS_RelativeHumidity_IsbL-0450_LatLon0.15_PT027H.grib2 2026-05-04 16:12 1.0M
20260504T12Z_MSC_GDPS_RelativeHumidity_IsbL-0500_LatLon0.15_PT027H.grib2 2026-05-04 16:12 1.0M
20260504T12Z_MSC_GDPS_RelativeHumidity_IsbL-0550_LatLon0.15_PT027H.grib2 2026-05-04 16:12 1.0M
20260504T12Z_MSC_GDPS_RelativeHumidity_IsbL-0600_LatLon0.15_PT027H.grib2 2026-05-04 16:12 1.1M
20260504T12Z_MSC_GDPS_RelativeHumidity_IsbL-0650_LatLon0.15_PT027H.grib2 2026-05-04 16:12 1.1M
20260504T12Z_MSC_GDPS_RelativeHumidity_IsbL-0700_LatLon0.15_PT027H.grib2 2026-05-04 16:12 1.1M
20260504T12Z_MSC_GDPS_RelativeHumidity_IsbL-0750_LatLon0.15_PT027H.grib2 2026-05-04 16:12 1.2M
20260504T12Z_MSC_GDPS_RelativeHumidity_IsbL-0800_LatLon0.15_PT027H.grib2 2026-05-04 16:12 1.2M
20260504T12Z_MSC_GDPS_RelativeHumidity_IsbL-0850_LatLon0.15_PT027H.grib2 2026-05-04 16:12 1.3M
20260504T12Z_MSC_GDPS_RelativeHumidity_IsbL-0875_LatLon0.15_PT027H.grib2 2026-05-04 16:12 1.3M
20260504T12Z_MSC_GDPS_RelativeHumidity_IsbL-0900_LatLon0.15_PT027H.grib2 2026-05-04 16:12 1.2M
20260504T12Z_MSC_GDPS_RelativeHumidity_IsbL-0925_LatLon0.15_PT027H.grib2 2026-05-04 16:12 1.2M
20260504T12Z_MSC_GDPS_RelativeHumidity_IsbL-0950_LatLon0.15_PT027H.grib2 2026-05-04 16:12 1.2M
20260504T12Z_MSC_GDPS_RelativeHumidity_IsbL-0970_LatLon0.15_PT027H.grib2 2026-05-04 16:12 1.2M
20260504T12Z_MSC_GDPS_RelativeHumidity_IsbL-0985_LatLon0.15_PT027H.grib2 2026-05-04 16:12 1.1M
20260504T12Z_MSC_GDPS_RelativeHumidity_IsbL-1000_LatLon0.15_PT027H.grib2 2026-05-04 16:12 1.2M
20260504T12Z_MSC_GDPS_RelativeHumidity_IsbL-1015_LatLon0.15_PT027H.grib2 2026-05-04 16:12 1.1M
20260504T12Z_MSC_GDPS_RelativeVorticity_IsbL-0200_LatLon0.15_PT027H.grib2 2026-05-04 16:12 1.5M
20260504T12Z_MSC_GDPS_RelativeVorticity_IsbL-0250_LatLon0.15_PT027H.grib2 2026-05-04 16:12 1.3M
20260504T12Z_MSC_GDPS_RelativeVorticity_IsbL-0500_LatLon0.15_PT027H.grib2 2026-05-04 16:12 1.5M
20260504T12Z_MSC_GDPS_RelativeVorticity_IsbL-0700_LatLon0.15_PT027H.grib2 2026-05-04 16:12 1.6M
20260504T12Z_MSC_GDPS_RelativeVorticity_IsbL-0850_LatLon0.15_PT027H.grib2 2026-05-04 16:12 1.6M
20260504T12Z_MSC_GDPS_Runoff-Accum_Sfc_LatLon0.15_PT027H.grib2 2026-05-04 16:12 89K
20260504T12Z_MSC_GDPS_SensibleHeatNetFlux_Sfc_LatLon0.15_PT027H.grib2 2026-05-04 16:12 654K
20260504T12Z_MSC_GDPS_ShowalterIndex_IsbL-0500_LatLon0.15_PT027H.grib2 2026-05-04 16:12 6.2M
20260504T12Z_MSC_GDPS_Snow-Accum1h_Sfc_LatLon0.15_PT027H.grib2 2026-05-04 16:12 1.0M
20260504T12Z_MSC_GDPS_Snow-Accum3h_Sfc_LatLon0.15_PT027H.grib2 2026-05-04 16:12 1.1M
20260504T12Z_MSC_GDPS_Snow-Accum_Sfc_LatLon0.15_PT027H.grib2 2026-05-04 16:12 1.8M
20260504T12Z_MSC_GDPS_SnowDensity_Sfc_LatLon0.15_PT027H.grib2 2026-05-04 16:12 252K
20260504T12Z_MSC_GDPS_SnowDepth_Sfc_LatLon0.15_PT027H.grib2 2026-05-04 16:12 1.7M
20260504T12Z_MSC_GDPS_SoilTemp_DBS-0to10cm_LatLon0.15_PT027H.grib2 2026-05-04 16:12 500K
20260504T12Z_MSC_GDPS_SoilTemp_Sfc_LatLon0.15_PT027H.grib2 2026-05-04 16:12 570K
20260504T12Z_MSC_GDPS_SoilVolumetricIceContent_Sfc_LatLon0.15_PT027H.grib2 2026-05-04 16:12 191K
20260504T12Z_MSC_GDPS_SoilVolumetricWaterContent_DBS-0to10cm_LatLon0.15_PT027H.grib2 2026-05-04 16:12 591K
20260504T12Z_MSC_GDPS_SoilVolumetricWaterContent_DBS-0to1cm_LatLon0.15_PT027H.grib2 2026-05-04 16:12 649K
20260504T12Z_MSC_GDPS_SpecificHumidity_AGL-120m_LatLon0.15_PT027H.grib2 2026-05-04 16:12 1.1M
20260504T12Z_MSC_GDPS_SpecificHumidity_AGL-2m_LatLon0.15_PT027H.grib2 2026-05-04 16:12 1.2M
20260504T12Z_MSC_GDPS_SpecificHumidity_AGL-40m_LatLon0.15_PT027H.grib2 2026-05-04 16:12 1.1M
20260504T12Z_MSC_GDPS_SpecificHumidity_AGL-80m_LatLon0.15_PT027H.grib2 2026-05-04 16:12 1.1M
20260504T12Z_MSC_GDPS_SpecificHumidity_IsbL-0001_LatLon0.15_PT027H.grib2 2026-05-04 16:12 1.1M
20260504T12Z_MSC_GDPS_SpecificHumidity_IsbL-0005_LatLon0.15_PT027H.grib2 2026-05-04 16:12 1.3M
20260504T12Z_MSC_GDPS_SpecificHumidity_IsbL-0010_LatLon0.15_PT027H.grib2 2026-05-04 16:12 1.4M
20260504T12Z_MSC_GDPS_SpecificHumidity_IsbL-0020_LatLon0.15_PT027H.grib2 2026-05-04 16:12 1.4M
20260504T12Z_MSC_GDPS_SpecificHumidity_IsbL-0030_LatLon0.15_PT027H.grib2 2026-05-04 16:12 1.4M
20260504T12Z_MSC_GDPS_SpecificHumidity_IsbL-0050_LatLon0.15_PT027H.grib2 2026-05-04 16:12 1.4M
20260504T12Z_MSC_GDPS_SpecificHumidity_IsbL-0100_LatLon0.15_PT027H.grib2 2026-05-04 16:12 1.4M
20260504T12Z_MSC_GDPS_SpecificHumidity_IsbL-0150_LatLon0.15_PT027H.grib2 2026-05-04 16:12 1.3M
20260504T12Z_MSC_GDPS_SpecificHumidity_IsbL-0175_LatLon0.15_PT027H.grib2 2026-05-04 16:12 1.3M
20260504T12Z_MSC_GDPS_SpecificHumidity_IsbL-0200_LatLon0.15_PT027H.grib2 2026-05-04 16:12 1.3M
20260504T12Z_MSC_GDPS_SpecificHumidity_IsbL-0225_LatLon0.15_PT027H.grib2 2026-05-04 16:12 1.3M
20260504T12Z_MSC_GDPS_SpecificHumidity_IsbL-0250_LatLon0.15_PT027H.grib2 2026-05-04 16:12 1.4M
20260504T12Z_MSC_GDPS_SpecificHumidity_IsbL-0275_LatLon0.15_PT027H.grib2 2026-05-04 16:12 1.3M
20260504T12Z_MSC_GDPS_SpecificHumidity_IsbL-0300_LatLon0.15_PT027H.grib2 2026-05-04 16:12 1.2M
20260504T12Z_MSC_GDPS_SpecificHumidity_IsbL-0350_LatLon0.15_PT027H.grib2 2026-05-04 16:12 1.2M
20260504T12Z_MSC_GDPS_SpecificHumidity_IsbL-0400_LatLon0.15_PT027H.grib2 2026-05-04 16:12 1.5M
20260504T12Z_MSC_GDPS_SpecificHumidity_IsbL-0450_LatLon0.15_PT027H.grib2 2026-05-04 16:12 1.6M
20260504T12Z_MSC_GDPS_SpecificHumidity_IsbL-0500_LatLon0.15_PT027H.grib2 2026-05-04 16:12 1.4M
20260504T12Z_MSC_GDPS_SpecificHumidity_IsbL-0550_LatLon0.15_PT027H.grib2 2026-05-04 16:12 1.6M
20260504T12Z_MSC_GDPS_SpecificHumidity_IsbL-0600_LatLon0.15_PT027H.grib2 2026-05-04 16:12 1.7M
20260504T12Z_MSC_GDPS_SpecificHumidity_IsbL-0650_LatLon0.15_PT027H.grib2 2026-05-04 16:12 1.5M
20260504T12Z_MSC_GDPS_SpecificHumidity_IsbL-0700_LatLon0.15_PT027H.grib2 2026-05-04 16:12 1.6M
20260504T12Z_MSC_GDPS_SpecificHumidity_IsbL-0750_LatLon0.15_PT027H.grib2 2026-05-04 16:12 1.7M
20260504T12Z_MSC_GDPS_SpecificHumidity_IsbL-0800_LatLon0.15_PT027H.grib2 2026-05-04 16:12 1.8M
20260504T12Z_MSC_GDPS_SpecificHumidity_IsbL-0850_LatLon0.15_PT027H.grib2 2026-05-04 16:12 1.9M
20260504T12Z_MSC_GDPS_SpecificHumidity_IsbL-0875_LatLon0.15_PT027H.grib2 2026-05-04 16:12 1.9M
20260504T12Z_MSC_GDPS_SpecificHumidity_IsbL-0900_LatLon0.15_PT027H.grib2 2026-05-04 16:12 1.6M
20260504T12Z_MSC_GDPS_SpecificHumidity_IsbL-0925_LatLon0.15_PT027H.grib2 2026-05-04 16:12 1.6M
20260504T12Z_MSC_GDPS_SpecificHumidity_IsbL-0950_LatLon0.15_PT027H.grib2 2026-05-04 16:12 1.5M
20260504T12Z_MSC_GDPS_SpecificHumidity_IsbL-0970_LatLon0.15_PT027H.grib2 2026-05-04 16:12 1.5M
20260504T12Z_MSC_GDPS_SpecificHumidity_IsbL-0985_LatLon0.15_PT027H.grib2 2026-05-04 16:12 1.5M
20260504T12Z_MSC_GDPS_SpecificHumidity_IsbL-1000_LatLon0.15_PT027H.grib2 2026-05-04 16:12 1.5M
20260504T12Z_MSC_GDPS_SpecificHumidity_IsbL-1015_LatLon0.15_PT027H.grib2 2026-05-04 16:12 1.5M
20260504T12Z_MSC_GDPS_SpecificHumidity_Sfc_LatLon0.15_PT027H.grib2 2026-05-04 16:12 671K
20260504T12Z_MSC_GDPS_Thickness_IsbL-0850to0700_LatLon0.15_PT027H.grib2 2026-05-04 16:12 471K
20260504T12Z_MSC_GDPS_Thickness_IsbL-1000to0500_LatLon0.15_PT027H.grib2 2026-05-04 16:12 376K
20260504T12Z_MSC_GDPS_Thickness_IsbL-1000to0850_LatLon0.15_PT027H.grib2 2026-05-04 16:12 490K
20260504T12Z_MSC_GDPS_TotalCloudCover_Sfc_LatLon0.15_PT027H.grib2 2026-05-04 16:12 823K
20260504T12Z_MSC_GDPS_TotalTotalsIndex_Sfc_LatLon0.15_PT027H.grib2 2026-05-04 16:12 6.2M
20260504T12Z_MSC_GDPS_UVIndex-ClearSky_Sfc_LatLon0.15_PT027H.grib2 2026-05-04 17:17 1.0M
20260504T12Z_MSC_GDPS_UVIndex_Sfc_LatLon0.15_PT027H.grib2 2026-05-04 17:17 1.5M
20260504T12Z_MSC_GDPS_UpwardLongwaveRadiationFlux_NTAtm_LatLon0.15_PT027H.grib2 2026-05-04 16:12 839K
20260504T12Z_MSC_GDPS_VerticalVelocity_IsbL-0200_LatLon0.15_PT027H.grib2 2026-05-04 16:12 944K
20260504T12Z_MSC_GDPS_VerticalVelocity_IsbL-0250_LatLon0.15_PT027H.grib2 2026-05-04 16:12 1.1M
20260504T12Z_MSC_GDPS_VerticalVelocity_IsbL-0500_LatLon0.15_PT027H.grib2 2026-05-04 16:12 1.3M
20260504T12Z_MSC_GDPS_VerticalVelocity_IsbL-0600_LatLon0.15_PT027H.grib2 2026-05-04 16:12 1.4M
20260504T12Z_MSC_GDPS_VerticalVelocity_IsbL-0700_LatLon0.15_PT027H.grib2 2026-05-04 16:12 1.2M
20260504T12Z_MSC_GDPS_VerticalVelocity_IsbL-0850_LatLon0.15_PT027H.grib2 2026-05-04 16:12 1.4M
20260504T12Z_MSC_GDPS_WindChill_Sfc_LatLon0.15_PT027H.grib2 2026-05-04 16:12 5.3M
20260504T12Z_MSC_GDPS_WindDir_AGL-10m_LatLon0.15_PT027H.grib2 2026-05-04 16:12 1.3M
20260504T12Z_MSC_GDPS_WindDir_AGL-120m_LatLon0.15_PT027H.grib2 2026-05-04 16:12 1.3M
20260504T12Z_MSC_GDPS_WindDir_AGL-40m_LatLon0.15_PT027H.grib2 2026-05-04 16:12 1.4M
20260504T12Z_MSC_GDPS_WindDir_AGL-80m_LatLon0.15_PT027H.grib2 2026-05-04 16:12 1.3M
20260504T12Z_MSC_GDPS_WindDir_IsbL-0001_LatLon0.15_PT027H.grib2 2026-05-04 16:12 684K
20260504T12Z_MSC_GDPS_WindDir_IsbL-0005_LatLon0.15_PT027H.grib2 2026-05-04 16:12 829K
20260504T12Z_MSC_GDPS_WindDir_IsbL-0010_LatLon0.15_PT027H.grib2 2026-05-04 16:12 849K
20260504T12Z_MSC_GDPS_WindDir_IsbL-0020_LatLon0.15_PT027H.grib2 2026-05-04 16:12 953K
20260504T12Z_MSC_GDPS_WindDir_IsbL-0030_LatLon0.15_PT027H.grib2 2026-05-04 16:12 959K
20260504T12Z_MSC_GDPS_WindDir_IsbL-0050_LatLon0.15_PT027H.grib2 2026-05-04 16:12 954K
20260504T12Z_MSC_GDPS_WindDir_IsbL-0100_LatLon0.15_PT027H.grib2 2026-05-04 16:12 1.0M
20260504T12Z_MSC_GDPS_WindDir_IsbL-0150_LatLon0.15_PT027H.grib2 2026-05-04 16:12 1.0M
20260504T12Z_MSC_GDPS_WindDir_IsbL-0175_LatLon0.15_PT027H.grib2 2026-05-04 16:12 1.1M
20260504T12Z_MSC_GDPS_WindDir_IsbL-0200_LatLon0.15_PT027H.grib2 2026-05-04 16:12 1.1M
20260504T12Z_MSC_GDPS_WindDir_IsbL-0225_LatLon0.15_PT027H.grib2 2026-05-04 16:12 1.1M
20260504T12Z_MSC_GDPS_WindDir_IsbL-0250_LatLon0.15_PT027H.grib2 2026-05-04 16:12 1.1M
20260504T12Z_MSC_GDPS_WindDir_IsbL-0275_LatLon0.15_PT027H.grib2 2026-05-04 16:12 1.2M
20260504T12Z_MSC_GDPS_WindDir_IsbL-0300_LatLon0.15_PT027H.grib2 2026-05-04 16:12 1.2M
20260504T12Z_MSC_GDPS_WindDir_IsbL-0350_LatLon0.15_PT027H.grib2 2026-05-04 16:12 1.3M
20260504T12Z_MSC_GDPS_WindDir_IsbL-0400_LatLon0.15_PT027H.grib2 2026-05-04 16:12 1.3M
20260504T12Z_MSC_GDPS_WindDir_IsbL-0450_LatLon0.15_PT027H.grib2 2026-05-04 16:12 1.3M
20260504T12Z_MSC_GDPS_WindDir_IsbL-0500_LatLon0.15_PT027H.grib2 2026-05-04 16:12 1.3M
20260504T12Z_MSC_GDPS_WindDir_IsbL-0550_LatLon0.15_PT027H.grib2 2026-05-04 16:12 1.4M
20260504T12Z_MSC_GDPS_WindDir_IsbL-0600_LatLon0.15_PT027H.grib2 2026-05-04 16:12 1.4M
20260504T12Z_MSC_GDPS_WindDir_IsbL-0650_LatLon0.15_PT027H.grib2 2026-05-04 16:12 1.5M
20260504T12Z_MSC_GDPS_WindDir_IsbL-0700_LatLon0.15_PT027H.grib2 2026-05-04 16:12 1.6M
20260504T12Z_MSC_GDPS_WindDir_IsbL-0750_LatLon0.15_PT027H.grib2 2026-05-04 16:12 1.7M
20260504T12Z_MSC_GDPS_WindDir_IsbL-0800_LatLon0.15_PT027H.grib2 2026-05-04 16:12 1.8M
20260504T12Z_MSC_GDPS_WindDir_IsbL-0850_LatLon0.15_PT027H.grib2 2026-05-04 16:12 1.9M
20260504T12Z_MSC_GDPS_WindDir_IsbL-0875_LatLon0.15_PT027H.grib2 2026-05-04 16:12 1.9M
20260504T12Z_MSC_GDPS_WindDir_IsbL-0900_LatLon0.15_PT027H.grib2 2026-05-04 16:12 1.9M
20260504T12Z_MSC_GDPS_WindDir_IsbL-0925_LatLon0.15_PT027H.grib2 2026-05-04 16:12 1.9M
20260504T12Z_MSC_GDPS_WindDir_IsbL-0950_LatLon0.15_PT027H.grib2 2026-05-04 16:12 1.9M
20260504T12Z_MSC_GDPS_WindDir_IsbL-0970_LatLon0.15_PT027H.grib2 2026-05-04 16:12 2.0M
20260504T12Z_MSC_GDPS_WindDir_IsbL-0985_LatLon0.15_PT027H.grib2 2026-05-04 16:12 2.0M
20260504T12Z_MSC_GDPS_WindDir_IsbL-1000_LatLon0.15_PT027H.grib2 2026-05-04 16:12 2.0M
20260504T12Z_MSC_GDPS_WindDir_IsbL-1015_LatLon0.15_PT027H.grib2 2026-05-04 16:12 2.0M
20260504T12Z_MSC_GDPS_WindGust-Max_AGL-10m_LatLon0.15_PT027H.grib2 2026-05-04 16:12 2.2M
20260504T12Z_MSC_GDPS_WindGust-Min_AGL-10m_LatLon0.15_PT027H.grib2 2026-05-04 16:12 2.1M
20260504T12Z_MSC_GDPS_WindGust_AGL-10m_LatLon0.15_PT027H.grib2 2026-05-04 16:12 2.1M
20260504T12Z_MSC_GDPS_WindSpeed_AGL-10m_LatLon0.15_PT027H.grib2 2026-05-04 16:12 1.1M
20260504T12Z_MSC_GDPS_WindSpeed_AGL-120m_LatLon0.15_PT027H.grib2 2026-05-04 16:12 1.2M
20260504T12Z_MSC_GDPS_WindSpeed_AGL-40m_LatLon0.15_PT027H.grib2 2026-05-04 16:12 1.2M
20260504T12Z_MSC_GDPS_WindSpeed_AGL-80m_LatLon0.15_PT027H.grib2 2026-05-04 16:12 1.2M
20260504T12Z_MSC_GDPS_WindSpeed_IsbL-0001_LatLon0.15_PT027H.grib2 2026-05-04 16:12 502K
20260504T12Z_MSC_GDPS_WindSpeed_IsbL-0005_LatLon0.15_PT027H.grib2 2026-05-04 16:12 622K
20260504T12Z_MSC_GDPS_WindSpeed_IsbL-0010_LatLon0.15_PT027H.grib2 2026-05-04 16:12 636K
20260504T12Z_MSC_GDPS_WindSpeed_IsbL-0020_LatLon0.15_PT027H.grib2 2026-05-04 16:12 674K
20260504T12Z_MSC_GDPS_WindSpeed_IsbL-0030_LatLon0.15_PT027H.grib2 2026-05-04 16:12 878K
20260504T12Z_MSC_GDPS_WindSpeed_IsbL-0050_LatLon0.15_PT027H.grib2 2026-05-04 16:12 915K
20260504T12Z_MSC_GDPS_WindSpeed_IsbL-0100_LatLon0.15_PT027H.grib2 2026-05-04 16:12 1.1M
20260504T12Z_MSC_GDPS_WindSpeed_IsbL-0150_LatLon0.15_PT027H.grib2 2026-05-04 16:12 1.0M
20260504T12Z_MSC_GDPS_WindSpeed_IsbL-0175_LatLon0.15_PT027H.grib2 2026-05-04 16:12 1.0M
20260504T12Z_MSC_GDPS_WindSpeed_IsbL-0200_LatLon0.15_PT027H.grib2 2026-05-04 16:12 1.1M
20260504T12Z_MSC_GDPS_WindSpeed_IsbL-0225_LatLon0.15_PT027H.grib2 2026-05-04 16:12 1.1M
20260504T12Z_MSC_GDPS_WindSpeed_IsbL-0250_LatLon0.15_PT027H.grib2 2026-05-04 16:12 1.1M
20260504T12Z_MSC_GDPS_WindSpeed_IsbL-0275_LatLon0.15_PT027H.grib2 2026-05-04 16:12 1.1M
20260504T12Z_MSC_GDPS_WindSpeed_IsbL-0300_LatLon0.15_PT027H.grib2 2026-05-04 16:12 1.1M
20260504T12Z_MSC_GDPS_WindSpeed_IsbL-0350_LatLon0.15_PT027H.grib2 2026-05-04 16:12 1.1M
20260504T12Z_MSC_GDPS_WindSpeed_IsbL-0400_LatLon0.15_PT027H.grib2 2026-05-04 16:12 1.1M
20260504T12Z_MSC_GDPS_WindSpeed_IsbL-0450_LatLon0.15_PT027H.grib2 2026-05-04 16:12 1.1M
20260504T12Z_MSC_GDPS_WindSpeed_IsbL-0500_LatLon0.15_PT027H.grib2 2026-05-04 16:12 1.1M
20260504T12Z_MSC_GDPS_WindSpeed_IsbL-0550_LatLon0.15_PT027H.grib2 2026-05-04 16:12 1.1M
20260504T12Z_MSC_GDPS_WindSpeed_IsbL-0600_LatLon0.15_PT027H.grib2 2026-05-04 16:12 1.1M
20260504T12Z_MSC_GDPS_WindSpeed_IsbL-0650_LatLon0.15_PT027H.grib2 2026-05-04 16:12 1.5M
20260504T12Z_MSC_GDPS_WindSpeed_IsbL-0700_LatLon0.15_PT027H.grib2 2026-05-04 16:12 1.5M
20260504T12Z_MSC_GDPS_WindSpeed_IsbL-0750_LatLon0.15_PT027H.grib2 2026-05-04 16:12 1.6M
20260504T12Z_MSC_GDPS_WindSpeed_IsbL-0800_LatLon0.15_PT027H.grib2 2026-05-04 16:12 1.7M
20260504T12Z_MSC_GDPS_WindSpeed_IsbL-0850_LatLon0.15_PT027H.grib2 2026-05-04 16:12 1.8M
20260504T12Z_MSC_GDPS_WindSpeed_IsbL-0875_LatLon0.15_PT027H.grib2 2026-05-04 16:12 1.8M
20260504T12Z_MSC_GDPS_WindSpeed_IsbL-0900_LatLon0.15_PT027H.grib2 2026-05-04 16:12 1.8M
20260504T12Z_MSC_GDPS_WindSpeed_IsbL-0925_LatLon0.15_PT027H.grib2 2026-05-04 16:12 1.8M
20260504T12Z_MSC_GDPS_WindSpeed_IsbL-0950_LatLon0.15_PT027H.grib2 2026-05-04 16:12 1.8M
20260504T12Z_MSC_GDPS_WindSpeed_IsbL-0970_LatLon0.15_PT027H.grib2 2026-05-04 16:12 1.9M
20260504T12Z_MSC_GDPS_WindSpeed_IsbL-0985_LatLon0.15_PT027H.grib2 2026-05-04 16:12 1.9M
20260504T12Z_MSC_GDPS_WindSpeed_IsbL-1000_LatLon0.15_PT027H.grib2 2026-05-04 16:12 1.9M
20260504T12Z_MSC_GDPS_WindSpeed_IsbL-1015_LatLon0.15_PT027H.grib2 2026-05-04 16:12 1.8M
20260504T12Z_MSC_GDPS_WindU_AGL-10m_LatLon0.15_PT027H.grib2 2026-05-04 16:12 1.3M
20260504T12Z_MSC_GDPS_WindU_AGL-120m_LatLon0.15_PT027H.grib2 2026-05-04 16:12 1.0M
20260504T12Z_MSC_GDPS_WindU_AGL-40m_LatLon0.15_PT027H.grib2 2026-05-04 16:12 969K
20260504T12Z_MSC_GDPS_WindU_AGL-80m_LatLon0.15_PT027H.grib2 2026-05-04 16:12 972K
20260504T12Z_MSC_GDPS_WindU_IsbL-0001_LatLon0.15_PT027H.grib2 2026-05-04 16:12 505K
20260504T12Z_MSC_GDPS_WindU_IsbL-0005_LatLon0.15_PT027H.grib2 2026-05-04 16:12 698K
20260504T12Z_MSC_GDPS_WindU_IsbL-0010_LatLon0.15_PT027H.grib2 2026-05-04 16:12 708K
20260504T12Z_MSC_GDPS_WindU_IsbL-0020_LatLon0.15_PT027H.grib2 2026-05-04 16:12 738K
20260504T12Z_MSC_GDPS_WindU_IsbL-0030_LatLon0.15_PT027H.grib2 2026-05-04 16:12 750K
20260504T12Z_MSC_GDPS_WindU_IsbL-0050_LatLon0.15_PT027H.grib2 2026-05-04 16:12 775K
20260504T12Z_MSC_GDPS_WindU_IsbL-0100_LatLon0.15_PT027H.grib2 2026-05-04 16:12 929K
20260504T12Z_MSC_GDPS_WindU_IsbL-0150_LatLon0.15_PT027H.grib2 2026-05-04 16:12 1.0M
20260504T12Z_MSC_GDPS_WindU_IsbL-0175_LatLon0.15_PT027H.grib2 2026-05-04 16:12 1.0M
20260504T12Z_MSC_GDPS_WindU_IsbL-0200_LatLon0.15_PT027H.grib2 2026-05-04 16:12 842K
20260504T12Z_MSC_GDPS_WindU_IsbL-0225_LatLon0.15_PT027H.grib2 2026-05-04 16:12 852K
20260504T12Z_MSC_GDPS_WindU_IsbL-0250_LatLon0.15_PT027H.grib2 2026-05-04 16:12 914K
20260504T12Z_MSC_GDPS_WindU_IsbL-0275_LatLon0.15_PT027H.grib2 2026-05-04 16:12 943K
20260504T12Z_MSC_GDPS_WindU_IsbL-0300_LatLon0.15_PT027H.grib2 2026-05-04 16:12 937K
20260504T12Z_MSC_GDPS_WindU_IsbL-0350_LatLon0.15_PT027H.grib2 2026-05-04 16:12 896K
20260504T12Z_MSC_GDPS_WindU_IsbL-0400_LatLon0.15_PT027H.grib2 2026-05-04 16:12 898K
20260504T12Z_MSC_GDPS_WindU_IsbL-0450_LatLon0.15_PT027H.grib2 2026-05-04 16:12 903K
20260504T12Z_MSC_GDPS_WindU_IsbL-0500_LatLon0.15_PT027H.grib2 2026-05-04 16:12 1.1M
20260504T12Z_MSC_GDPS_WindU_IsbL-0550_LatLon0.15_PT027H.grib2 2026-05-04 16:12 1.1M
20260504T12Z_MSC_GDPS_WindU_IsbL-0600_LatLon0.15_PT027H.grib2 2026-05-04 16:12 1.2M
20260504T12Z_MSC_GDPS_WindU_IsbL-0650_LatLon0.15_PT027H.grib2 2026-05-04 16:12 1.2M
20260504T12Z_MSC_GDPS_WindU_IsbL-0700_LatLon0.15_PT027H.grib2 2026-05-04 16:12 1.2M
20260504T12Z_MSC_GDPS_WindU_IsbL-0750_LatLon0.15_PT027H.grib2 2026-05-04 16:12 1.3M
20260504T12Z_MSC_GDPS_WindU_IsbL-0800_LatLon0.15_PT027H.grib2 2026-05-04 16:12 1.4M
20260504T12Z_MSC_GDPS_WindU_IsbL-0850_LatLon0.15_PT027H.grib2 2026-05-04 16:12 1.5M
20260504T12Z_MSC_GDPS_WindU_IsbL-0875_LatLon0.15_PT027H.grib2 2026-05-04 16:12 1.5M
20260504T12Z_MSC_GDPS_WindU_IsbL-0900_LatLon0.15_PT027H.grib2 2026-05-04 16:12 1.5M
20260504T12Z_MSC_GDPS_WindU_IsbL-0925_LatLon0.15_PT027H.grib2 2026-05-04 16:12 1.5M
20260504T12Z_MSC_GDPS_WindU_IsbL-0950_LatLon0.15_PT027H.grib2 2026-05-04 16:12 1.4M
20260504T12Z_MSC_GDPS_WindU_IsbL-0970_LatLon0.15_PT027H.grib2 2026-05-04 16:12 1.4M
20260504T12Z_MSC_GDPS_WindU_IsbL-0985_LatLon0.15_PT027H.grib2 2026-05-04 16:12 1.4M
20260504T12Z_MSC_GDPS_WindU_IsbL-1000_LatLon0.15_PT027H.grib2 2026-05-04 16:12 1.4M
20260504T12Z_MSC_GDPS_WindU_IsbL-1015_LatLon0.15_PT027H.grib2 2026-05-04 16:12 1.4M
20260504T12Z_MSC_GDPS_WindV_AGL-10m_LatLon0.15_PT027H.grib2 2026-05-04 16:12 1.6M
20260504T12Z_MSC_GDPS_WindV_AGL-120m_LatLon0.15_PT027H.grib2 2026-05-04 16:12 1.0M
20260504T12Z_MSC_GDPS_WindV_AGL-40m_LatLon0.15_PT027H.grib2 2026-05-04 16:12 969K
20260504T12Z_MSC_GDPS_WindV_AGL-80m_LatLon0.15_PT027H.grib2 2026-05-04 16:12 1.0M
20260504T12Z_MSC_GDPS_WindV_IsbL-0001_LatLon0.15_PT027H.grib2 2026-05-04 16:12 718K
20260504T12Z_MSC_GDPS_WindV_IsbL-0005_LatLon0.15_PT027H.grib2 2026-05-04 16:12 864K
20260504T12Z_MSC_GDPS_WindV_IsbL-0010_LatLon0.15_PT027H.grib2 2026-05-04 16:12 893K
20260504T12Z_MSC_GDPS_WindV_IsbL-0020_LatLon0.15_PT027H.grib2 2026-05-04 16:12 860K
20260504T12Z_MSC_GDPS_WindV_IsbL-0030_LatLon0.15_PT027H.grib2 2026-05-04 16:12 864K
20260504T12Z_MSC_GDPS_WindV_IsbL-0050_LatLon0.15_PT027H.grib2 2026-05-04 16:12 906K
20260504T12Z_MSC_GDPS_WindV_IsbL-0100_LatLon0.15_PT027H.grib2 2026-05-04 16:12 856K
20260504T12Z_MSC_GDPS_WindV_IsbL-0150_LatLon0.15_PT027H.grib2 2026-05-04 16:12 1.0M
20260504T12Z_MSC_GDPS_WindV_IsbL-0175_LatLon0.15_PT027H.grib2 2026-05-04 16:12 813K
20260504T12Z_MSC_GDPS_WindV_IsbL-0200_LatLon0.15_PT027H.grib2 2026-05-04 16:12 841K
20260504T12Z_MSC_GDPS_WindV_IsbL-0225_LatLon0.15_PT027H.grib2 2026-05-04 16:12 908K
20260504T12Z_MSC_GDPS_WindV_IsbL-0250_LatLon0.15_PT027H.grib2 2026-05-04 16:12 910K
20260504T12Z_MSC_GDPS_WindV_IsbL-0275_LatLon0.15_PT027H.grib2 2026-05-04 16:12 937K
20260504T12Z_MSC_GDPS_WindV_IsbL-0300_LatLon0.15_PT027H.grib2 2026-05-04 16:12 931K
20260504T12Z_MSC_GDPS_WindV_IsbL-0350_LatLon0.15_PT027H.grib2 2026-05-04 16:12 889K
20260504T12Z_MSC_GDPS_WindV_IsbL-0400_LatLon0.15_PT027H.grib2 2026-05-04 16:12 890K
20260504T12Z_MSC_GDPS_WindV_IsbL-0450_LatLon0.15_PT027H.grib2 2026-05-04 16:12 892K
20260504T12Z_MSC_GDPS_WindV_IsbL-0500_LatLon0.15_PT027H.grib2 2026-05-04 16:12 1.1M
20260504T12Z_MSC_GDPS_WindV_IsbL-0550_LatLon0.15_PT027H.grib2 2026-05-04 16:12 1.1M
20260504T12Z_MSC_GDPS_WindV_IsbL-0600_LatLon0.15_PT027H.grib2 2026-05-04 16:12 1.1M
20260504T12Z_MSC_GDPS_WindV_IsbL-0650_LatLon0.15_PT027H.grib2 2026-05-04 16:12 1.2M
20260504T12Z_MSC_GDPS_WindV_IsbL-0700_LatLon0.15_PT027H.grib2 2026-05-04 16:12 1.2M
20260504T12Z_MSC_GDPS_WindV_IsbL-0750_LatLon0.15_PT027H.grib2 2026-05-04 16:12 1.2M
20260504T12Z_MSC_GDPS_WindV_IsbL-0800_LatLon0.15_PT027H.grib2 2026-05-04 16:12 1.4M
20260504T12Z_MSC_GDPS_WindV_IsbL-0850_LatLon0.15_PT027H.grib2 2026-05-04 16:12 1.4M
20260504T12Z_MSC_GDPS_WindV_IsbL-0875_LatLon0.15_PT027H.grib2 2026-05-04 16:12 1.5M
20260504T12Z_MSC_GDPS_WindV_IsbL-0900_LatLon0.15_PT027H.grib2 2026-05-04 16:12 1.5M
20260504T12Z_MSC_GDPS_WindV_IsbL-0925_LatLon0.15_PT027H.grib2 2026-05-04 16:12 1.5M
20260504T12Z_MSC_GDPS_WindV_IsbL-0950_LatLon0.15_PT027H.grib2 2026-05-04 16:12 1.4M
20260504T12Z_MSC_GDPS_WindV_IsbL-0970_LatLon0.15_PT027H.grib2 2026-05-04 16:12 1.4M
20260504T12Z_MSC_GDPS_WindV_IsbL-0985_LatLon0.15_PT027H.grib2 2026-05-04 16:12 1.4M
20260504T12Z_MSC_GDPS_WindV_IsbL-1000_LatLon0.15_PT027H.grib2 2026-05-04 16:12 1.4M
20260504T12Z_MSC_GDPS_WindV_IsbL-1015_LatLon0.15_PT027H.grib2 2026-05-04 16:12 1.4M